Tracking 20712 objects as of 27-May-2020
HD Live streaming from Space Station
objects crossing your sky now

COSMOS 1474

Track COSMOS 1474 now!
10-day predictions
COSMOS 1474 is classified as:


NORAD ID: 14172
Int'l Code: 1983-069B
Perigee: 1,418.6 km
Apogee: 1,469.5 km
Inclination: 74.0 °
Period: 114.6 minutes
Semi major axis: 7815 km
RCS: 0.7019 m2 (medium)
Launch date: July 6, 1983
Source: Commonwealth of Independent States (former USSR) (CIS)
Launch site: PLESETSK MISSILE AND SPACE COMPLEX (PKMTR)
aabbcc
Your satellite tracking list
Your tracking list is empty




NASA's NSSDC Master Catalog

Two Line Element Set (TLE):
1 14172U 83069B   20148.52017230 -.00000024 +00000-0 -45129-4 0  9999
2 14172 074.0229 168.2141 0032570 121.1301 349.4105 12.56632593692443
Source of the keplerian elements: AFSPC